Location: Lake Crest
(37.6062°N, 88.9176°W)
Time: 02:54:10
(UTC+00:00)

Cosmos 1674 Rocket - Pass Details

Date: 15 December 2019
Orbit: 602 x 630 km, 82.5° (Epoch: 28 January)

Event Time Altitude Azimuth Distance (km) Brightness Sun altitude
Rises 00:58:13 0° 197° (SSW) 2,900 7.3 -26.9°
Reaches altitude 10° 01:00:30 10° 202° (SSW) 1,995 6.5 -27.4°
Enters shadow 01:04:42 52° 274° (W) 779 4.3 -28.2°
